• In Uzbekistan
  • List of Countries
  • For 7 days
  • Water Temperature
  • Satellite Maps
  • Weather Map
  • Weather Widgets
  • user-avatar
    Login

    Hourly Weather Luanda

    Today, 29 June, Thursday

    Time Temperature Precipitation Wind Pressure Humidity
    00:00 +20°C° 0 mm 2 mps 756 mmHg 95%
    01:00 +22°C° 0 mm 1 mps 756 mmHg 93%
    02:00 +22°C° 0 mm 1 mps 756 mmHg 93%
    03:00 +22°C° 0 mm 1 mps 755 mmHg 93%
    04:00 +22°C° 0 mm 1 mps 755 mmHg 92%
    05:00 +22°C° 0 mm 1 mps 755 mmHg 92%
    06:00 +22°C° 0 mm 1 mps 755 mmHg 91%
    07:00 +23°C° 0 mm 1 mps 756 mmHg 84%
    08:00 +26°C° 0 mm 1 mps 756 mmHg 73%
    09:00 +28°C° 0 mm 1 mps 756 mmHg 62%
    10:00 +31°C° 0 mm 1 mps 756 mmHg 51%
    11:00 +32°C° 0 mm 2 mps 756 mmHg 46%
    12:00 +34°C° 0 mm 3 mps 755 mmHg 42%
    13:00 +36°C° 0 mm 3 mps 755 mmHg 37%
    14:00 +34°C° 0 mm 4 mps 754 mmHg 44%
    15:00 +32°C° 0 mm 5 mps 754 mmHg 52%
    16:00 +29°C° 0 mm 6 mps 753 mmHg 59%
    17:00 +27°C° 0 mm 5 mps 754 mmHg 68%
    18:00 +25°C° 0 mm 5 mps 754 mmHg 78%
    19:00 +22°C° 0 mm 5 mps 754 mmHg 87%
    20:00 +22°C° 0 mm 4 mps 755 mmHg 88%
    21:00 +22°C° 0 mm 3 mps 756 mmHg 90%
    22:00 +23°C° 0 mm 2 mps 756 mmHg 92%
    23:00 +23°C° 0 mm 2 mps 756 mmHg 89%

    Tomorrow, 30 June, Friday

    Time Temperature Precipitation Wind Pressure Humidity
    00:00 +23°C° 0 mm 2 mps 757 mmHg 87%
    01:00 +24°C° 0 mm 2 mps 757 mmHg 85%
    02:00 +24°C° 0 mm 1 mps 756 mmHg 84%
    03:00 +24°C° 0 mm 1 mps 756 mmHg 84%
    04:00 +24°C° 0 mm 1 mps 756 mmHg 83%
    05:00 +24°C° 0 mm 1 mps 756 mmHg 83%
    06:00 +24°C° 0 mm 1 mps 756 mmHg 83%
    07:00 +23°C° 0 mm 1 mps 757 mmHg 83%
    08:00 +25°C° 0 mm 1 mps 757 mmHg 73%
    09:00 +27°C° 0 mm 1 mps 757 mmHg 63%
    10:00 +29°C° 0 mm 1 mps 757 mmHg 54%
    11:00 +31°C° 0 mm 2 mps 757 mmHg 47%
    12:00 +34°C° 0 mm 3 mps 756 mmHg 40%
    13:00 +36°C° 0 mm 4 mps 755 mmHg 33%
    14:00 +34°C° 0 mm 4 mps 755 mmHg 40%
    15:00 +32°C° 0 mm 5 mps 754 mmHg 47%
    16:00 +30°C° 0 mm 6 mps 753 mmHg 54%
    17:00 +28°C° 0 mm 5 mps 753 mmHg 63%
    18:00 +26°C° 0 mm 5 mps 754 mmHg 72%
    19:00 +22°C° 0 mm 5 mps 754 mmHg 81%
    20:00 +22°C° 0 mm 4 mps 755 mmHg 86%
    21:00 +21°C° 0 mm 4 mps 755 mmHg 90%
    22:00 +20°C° 0 mm 3 mps 756 mmHg 94%
    23:00 +20°C° 0 mm 3 mps 756 mmHg 95%

    Day after tomorrow, 1 July, Saturday

    Time Temperature Precipitation Wind Pressure Humidity
    00:00 +20°C° 0 mm 2 mps 756 mmHg 96%
    01:00 +19°C° 0 mm 2 mps 756 mmHg 96%
    02:00 +19°C° 0 mm 2 mps 755 mmHg 97%
    03:00 +19°C° 0 mm 1 mps 755 mmHg 97%
    04:00 +19°C° 0 mm 1 mps 755 mmHg 98%
    05:00 +19°C° 0 mm 1 mps 755 mmHg 97%
    06:00 +20°C° 0 mm 1 mps 755 mmHg 97%
    07:00 +20°C° 0 mm 1 mps 755 mmHg 97%
    08:00 +24°C° 0 mm 1 mps 756 mmHg 81%
    09:00 +27°C° 0 mm 1 mps 756 mmHg 65%
    10:00 +28°C° 0 mm 0 mps 756 mmHg 49%
    11:00 +32°C° 0 mm 1 mps 756 mmHg 44%
    12:00 +34°C° 0 mm 2 mps 755 mmHg 40%
    13:00 +35°C° 0 mm 3 mps 754 mmHg 36%
    14:00 +33°C° 0 mm 4 mps 753 mmHg 43%
    15:00 +30°C° 0 mm 5 mps 753 mmHg 51%
    16:00 +29°C° 0 mm 6 mps 752 mmHg 59%
    17:00 +27°C° 0 mm 5 mps 753 mmHg 68%
    18:00 +25°C° 0 mm 5 mps 753 mmHg 78%
    19:00 +22°C° 0 mm 5 mps 754 mmHg 87%
    20:00 +21°C° 0 mm 3 mps 755 mmHg 90%
    21:00 +20°C° 0 mm 2 mps 755 mmHg 93%
    22:00 +20°C° 0 mm 1 mps 756 mmHg 97%
    23:00 +21°C° 0 mm 1 mps 756 mmHg 96%

    2 July, Sunday

    Time Temperature Precipitation Wind Pressure Humidity
    00:00 +21°C° 0 mm 1 mps 756 mmHg 95%
    01:00 +22°C° 0 mm 1 mps 756 mmHg 94%
    02:00 +22°C° 0 mm 1 mps 755 mmHg 92%
    03:00 +21°C° 0 mm 2 mps 755 mmHg 90%
    04:00 +21°C° 0 mm 2 mps 755 mmHg 89%
    05:00 +21°C° 0 mm 2 mps 755 mmHg 89%
    06:00 +20°C° 0 mm 2 mps 755 mmHg 89%
    07:00 +21°C° 0 mm 1 mps 756 mmHg 90%
    08:00 +24°C° 0 mm 1 mps 756 mmHg 76%
    09:00 +27°C° 0 mm 1 mps 756 mmHg 62%
    10:00 +30°C° 0 mm 1 mps 756 mmHg 48%
    11:00 +32°C° 0 mm 2 mps 755 mmHg 44%
    12:00 +34°C° 0 mm 3 mps 754 mmHg 39%
    13:00 +35°C° 0 mm 4 mps 753 mmHg 35%
    14:00 +33°C° 0 mm 4 mps 753 mmHg 42%
    15:00 +32°C° 0 mm 5 mps 752 mmHg 50%
    16:00 +29°C° 0 mm 5 mps 752 mmHg 58%
    17:00 +27°C° 0 mm 5 mps 752 mmHg 68%
    18:00 +25°C° 0 mm 4 mps 753 mmHg 77%
    19:00 +22°C° 0 mm 4 mps 753 mmHg 86%
    20:00 +21°C° 0 mm 3 mps 754 mmHg 90%
    21:00 +20°C° 0 mm 2 mps 755 mmHg 93%
    22:00 +20°C° 0 mm 2 mps 756 mmHg 97%
    23:00 +21°C° 0 mm 1 mps 755 mmHg 94%

    3 July, Monday

    Time Temperature Precipitation Wind Pressure Humidity
    00:00 +22°C° 0 mm 1 mps 755 mmHg 92%
    01:00 +22°C° 0 mm 1 mps 755 mmHg 90%
    02:00 +22°C° 0 mm 1 mps 755 mmHg 89%
    03:00 +22°C° 0 mm 1 mps 755 mmHg 88%
    04:00 +21°C° 0 mm 2 mps 755 mmHg 87%
    05:00 +21°C° 0 mm 2 mps 755 mmHg 89%
    06:00 +21°C° 0 mm 2 mps 755 mmHg 91%
    07:00 +20°C° 0 mm 2 mps 756 mmHg 93%
    08:00 +24°C° 0 mm 2 mps 756 mmHg 80%
    09:00 +26°C° 0 mm 2 mps 756 mmHg 67%
    10:00 +29°C° 0 mm 2 mps 756 mmHg 54%
    11:00 +30°C° 0 mm 3 mps 755 mmHg 50%
    12:00 +32°C° 0 mm 4 mps 755 mmHg 46%
    13:00 +33°C° 0 mm 4 mps 754 mmHg 42%
    14:00 +32°C° 0 mm 5 mps 754 mmHg 47%
    15:00 +29°C° 0 mm 5 mps 753 mmHg 52%
    16:00 +28°C° 0 mm 5 mps 753 mmHg 58%
    17:00 +26°C° 0 mm 5 mps 753 mmHg 67%
    18:00 +23°C° 0 mm 5 mps 754 mmHg 76%
    19:00 +21°C° 0 mm 4 mps 755 mmHg 85%
    20:00 +21°C° 0 mm 4 mps 755 mmHg 88%
    21:00 +20°C° 0 mm 3 mps 756 mmHg 92%
    22:00 +19°C° 0 mm 2 mps 756 mmHg 96%
    23:00 +20°C° 0 mm 2 mps 756 mmHg 94%

    4 July, Tuesday

    Time Temperature Precipitation Wind Pressure Humidity
    00:00 +22°C° 0 mm 1 mps 756 mmHg 91%
    01:00 +22°C° 0 mm 1 mps 756 mmHg 89%
    02:00 +22°C° 0.1 mm 1 mps 756 mmHg 88%
    03:00 +22°C° 0.1 mm 1 mps 756 mmHg 86%
    04:00 +23°C° 0.1 mm 1 mps 756 mmHg 85%
    05:00 +22°C° 0 mm 1 mps 756 mmHg 85%
    06:00 +21°C° 0 mm 2 mps 756 mmHg 85%
    07:00 +21°C° 0 mm 2 mps 756 mmHg 86%
    08:00 +24°C° 0 mm 2 mps 757 mmHg 74%
    09:00 +26°C° 0 mm 2 mps 757 mmHg 63%
    10:00 +29°C° 0 mm 2 mps 757 mmHg 51%
    11:00 +30°C° 0 mm 2 mps 756 mmHg 48%
    12:00 +31°C° 0 mm 3 mps 755 mmHg 44%
    13:00 +33°C° 0 mm 4 mps 754 mmHg 40%
    14:00 +32°C° 0 mm 4 mps 754 mmHg 46%
    15:00 +29°C° 0 mm 5 mps 753 mmHg 52%
    16:00 +28°C° 0 mm 5 mps 753 mmHg 57%
    17:00 +26°C° 0 mm 5 mps 754 mmHg 66%
    18:00 +23°C° 0 mm 4 mps 754 mmHg 75%
    19:00 +21°C° 0 mm 4 mps 755 mmHg 83%
    20:00 +21°C° 0 mm 3 mps 755 mmHg 87%
    21:00 +20°C° 0 mm 3 mps 756 mmHg 91%
    22:00 +19°C° 0 mm 2 mps 756 mmHg 95%
    23:00 +19°C° 0 mm 2 mps 756 mmHg 95%
    Show more